Location: *
(35.2348°S, 91.3916°E)
Time: 01:23:23
(UTC+00:00)

ADEOS II - Pass Details

Date: 23 October 2019
Orbit: 800 x 800 km, 98.5° (Epoch: 14 November)

Event Time Altitude Azimuth Distance (km) Brightness Sun altitude
Exits shadow 19:34:43 29° 180° (S) 1,457 3.7 -35.8°
Drops below altitude 10° 19:37:16 10° 187° (S) 2,405 5.0 -35.5°
Sets 19:39:38 0° 189° (S) 3,343 5.8 -35.2°
